McCall, ID

4:46 AM MDT on May 29, 2017 (GMT -0600)
McCall

Weather History for KMYL - March, 2011

Change the Weather History Date:

Tuesday, March 29, 2011

  Actual Average Record
Temperature  
Mean Temperature 26 °F 32 °F  
Max Temperature 33 °F 43 °F 64 °F (1978)
Min Temperature 18 °F 22 °F -2 °F (1950)
Degree Days  
Heating Degree Days 39 33  
Month to date heating degree days 1059 1050  
Since 1 July heating degree days 7232 7725  
Cooling Degree Days 0 0  
Month to date cooling degree days 0 0  
Year to date cooling degree days 0 0  
Moisture  
Dew Point 27 °F    
Average Humidity 87    
Maximum Humidity 92    
Minimum Humidity 81    
Precipitation  
Precipitation 0.17 in 0.09 in 1.01 in (2010)
Month to date precipitation 4.06 2.03  
Year to date precipitation 8.02 5.50  
Sea Level Pressure  
Sea Level Pressure 30.11 in    
Wind  
Wind Speed 3 mph (SSE)    
Max Wind Speed 9 mph    
Max Gust Speed 12 mph    
Visibility 4 miles    
Events Snow    
T = Trace of Precipitation, MM = Missing Value Source: NWS Daily Summary

Daily Weather History Graph

Daily Weather History Graph

Search for Another Location

Airport or City:

Trip Planner

Search our weather history database for the weather conditions in past years. The results will help you decide how hot, cold, wet, or windy it might be!

Date:

Astronomy

Mar. 29, 2011 Rise Set
Actual Time 7:31 AM MDT 8:08 PM MDT
Civil Twilight 7:01 AM MDT 8:37 PM MDT
Nautical Twilight 6:26 AM MDT 9:12 PM MDT
Astronomical Twilight 5:50 AM MDT 9:49 PM MDT
Moon 5:09 AM MDT 3:42 PM MDT
Length of Visible Light 13h 36m
Length of Day
12h 37m
Waning Crescent, 20% of the Moon is Illuminated
Mar 29
Waning Crescent
Apr 3
New
Apr 11
First Quarter
Apr 17
Full
Apr 24
Last Quarter

Hourly Weather History & Observations

Time (MDT) Temp. Windchill Dew Point Humidity Pressure Visibility Wind Dir Wind Speed Gust Speed Precip Events Conditions
12:51 AM 25.0 °F 19.3 °F 21.0 °F 85% 30.20 in 10.0 mi NNE 4.6 mph - N/A   Clear
1:51 AM 21.0 °F - 18.0 °F 88% 30.21 in 10.0 mi Calm Calm - N/A   Clear
2:51 AM 19.9 °F - 18.0 °F 92% 30.19 in 10.0 mi Calm Calm - N/A   Clear
3:51 AM 19.0 °F - 17.1 °F 92% 30.19 in 10.0 mi Calm Calm - N/A   Clear
4:51 AM 19.9 °F 13.4 °F 17.1 °F 89% 30.18 in 10.0 mi NNW 4.6 mph - N/A   Mostly Cloudy
5:51 AM 19.9 °F 14.9 °F 17.1 °F 89% 30.17 in 10.0 mi NNW 3.5 mph - N/A   Overcast
6:51 AM 21.0 °F - 18.0 °F 88% 30.17 in 10.0 mi Calm Calm - N/A   Overcast
7:51 AM 19.9 °F - 18.0 °F 92% 30.17 in 10.0 mi Calm Calm - N/A   Overcast
8:51 AM 24.1 °F - 21.0 °F 88% 30.15 in 10.0 mi Calm Calm - N/A   Overcast
9:51 AM 25.0 °F - 21.0 °F 85% 30.17 in 10.0 mi Calm Calm - N/A   Overcast
10:51 AM 26.1 °F - 21.0 °F 81% 30.18 in 10.0 mi Calm Calm - N/A   Overcast
11:04 AM 26.6 °F - 21.2 °F 80% 30.08 in 1.8 mi Calm Calm - 0.00 in Snow Light Snow
11:13 AM 26.6 °F - 21.2 °F 80% 30.08 in 2.0 mi Calm Calm - 0.00 in Snow Light Snow
11:32 AM 26.6 °F - 23.0 °F 86% 30.09 in 1.2 mi Calm Calm - 0.01 in Snow Light Snow
11:51 AM 26.1 °F - 23.0 °F 88% 30.19 in 2.0 mi Calm Calm - 0.01 in Snow Light Snow
11:58 AM 26.6 °F - 23.0 °F 86% 30.09 in 1.5 mi Calm Calm - 0.00 in Snow Light Snow
12:32 PM 26.6 °F - 24.8 °F 93% 30.08 in 1.0 mi Calm Calm - 0.01 in Snow Light Snow
12:47 PM 28.4 °F - 24.8 °F 86% 30.08 in 1.2 mi Calm Calm - 0.02 in Snow Light Snow
12:51 PM 28.0 °F - 25.0 °F 88% 30.19 in 1.2 mi Calm Calm - 0.02 in Snow Light Snow
12:58 PM 28.4 °F - 26.6 °F 93% 30.09 in 1.2 mi Calm Calm - 0.00 in Snow Light Snow
1:18 PM 28.4 °F - 26.6 °F 93% 30.08 in 2.5 mi Calm Calm - 0.00 in Snow Light Snow
1:38 PM 30.2 °F - 26.6 °F 86% 30.08 in 1.5 mi Calm Calm - 0.01 in Snow Light Snow
1:42 PM 30.2 °F - 28.4 °F 93% 30.08 in 1.0 mi Calm Calm - 0.01 in Snow Light Snow
1:47 PM 30.2 °F - 28.4 °F 93% 30.08 in 0.8 mi Calm Calm - 0.01 in Snow Light Snow
1:51 PM 30.0 °F - 28.0 °F 92% 30.19 in 0.8 mi Calm Calm - 0.01 in Snow Light Snow
1:57 PM 30.2 °F - 28.4 °F 93% 30.08 in 1.0 mi Calm Calm - 0.01 in Snow Light Snow
2:08 PM 30.2 °F - 28.4 °F 93% 30.08 in 1.2 mi Calm Calm - 0.01 in Snow Light Snow
2:33 PM 30.2 °F - 28.4 °F 93% 30.07 in 2.0 mi Calm Calm - 0.02 in Snow Light Snow
2:51 PM 32.0 °F 24.8 °F 28.9 °F 88% 30.18 in 2.5 mi SSE 8.1 mph - 0.02 in Snow Light Snow
2:55 PM 32.0 °F 24.8 °F 28.4 °F 87% 30.07 in 2.5 mi SSE 8.1 mph - 0.00 in Snow Light Snow
3:04 PM 32.0 °F 25.6 °F 28.4 °F 87% 30.07 in 3.0 mi SSE 6.9 mph - 0.00 in Snow Light Snow
3:51 PM 33.1 °F 27.7 °F 28.9 °F 85% 30.16 in 8.0 mi South 5.8 mph - 0.00 in Snow Light Snow
4:03 PM 33.8 °F 28.6 °F 28.4 °F 81% 30.05 in 2.0 mi SSE 5.8 mph - 0.00 in Snow Light Snow
4:05 PM 33.8 °F 27.7 °F 28.4 °F 81% 30.05 in 1.8 mi SSE 6.9 mph - 0.00 in Snow Light Snow
4:37 PM 32.0 °F 25.6 °F 30.2 °F 93% 30.06 in 2.5 mi South 6.9 mph - 0.00 in Snow Light Snow
4:51 PM 32.0 °F 26.4 °F 30.0 °F 92% 30.16 in 2.5 mi South 5.8 mph - 0.00 in Snow Light Snow
5:12 PM 32.0 °F 28.7 °F 30.2 °F 93% 30.06 in 1.2 mi South 3.5 mph - 0.01 in Snow Light Snow
5:18 PM 32.0 °F 28.7 °F 30.2 °F 93% 30.06 in 1.0 mi South 3.5 mph - 0.01 in Snow Light Snow
5:28 PM 32.0 °F 28.7 °F 30.2 °F 93% 30.06 in 0.8 mi South 3.5 mph - 0.01 in Snow Light Snow
5:42 PM 32.0 °F - 30.2 °F 93% 30.06 in 1.0 mi Calm Calm - 0.02 in Snow Light Snow
5:51 PM 32.0 °F - 30.9 °F 96% 30.17 in 1.0 mi Calm Calm - 0.02 in Snow Light Snow
6:16 PM 32.0 °F 27.5 °F 30.2 °F 93% 30.06 in 1.0 mi SSE 4.6 mph - 0.02 in Snow Light Snow
6:34 PM 32.0 °F 27.5 °F 30.2 °F 93% 30.06 in 1.2 mi SSE 4.6 mph - 0.02 in Snow Light Snow
6:47 PM 32.0 °F 27.5 °F 30.2 °F 93% 30.06 in 1.2 mi SSE 4.6 mph - 0.02 in Snow Light Snow
6:51 PM 32.0 °F 27.5 °F 30.9 °F 96% 30.17 in 1.2 mi SSE 4.6 mph - 0.03 in Snow Light Snow
7:03 PM 32.0 °F 27.5 °F 30.2 °F 93% 30.06 in 1.2 mi SE 4.6 mph - 0.00 in Snow Light Snow
7:27 PM 32.0 °F 27.5 °F 30.2 °F 93% 30.07 in 1.0 mi SSE 4.6 mph - 0.00 in Snow Light Snow
7:34 PM 32.0 °F 27.5 °F 30.2 °F 93% 30.07 in 1.0 mi SSE 4.6 mph - 0.01 in Snow Light Snow
7:51 PM 32.0 °F 27.5 °F 30.9 °F 96% 30.17 in 1.0 mi SE 4.6 mph - 0.01 in Snow Light Snow
8:05 PM 32.0 °F 25.6 °F 30.2 °F 93% 30.05 in 1.2 mi SE 6.9 mph - 0.01 in Snow Light Snow
8:21 PM 32.0 °F 27.5 °F 30.2 °F 93% 30.06 in 2.5 mi SE 4.6 mph - 0.01 in Snow Light Snow
8:32 PM 32.0 °F 27.5 °F 30.2 °F 93% 30.07 in 3.0 mi SE 4.6 mph - 0.01 in Snow Light Snow
8:51 PM 32.0 °F 27.5 °F 30.9 °F 96% 30.17 in 3.0 mi SSE 4.6 mph - 0.01 in Snow Light Snow
9:02 PM 32.0 °F 28.7 °F 30.2 °F 93% 30.07 in 4.0 mi SSE 3.5 mph - 0.00 in Snow Light Snow
9:13 PM 32.0 °F 28.7 °F 30.2 °F 93% 30.07 in 5.0 mi SSE 3.5 mph - 0.00 in Snow Light Snow
9:25 PM 32.0 °F 28.7 °F 30.2 °F 93% 30.07 in 4.0 mi South 3.5 mph - 0.00 in Snow Light Snow
9:51 PM 32.0 °F 27.5 °F 30.0 °F 92% 30.17 in 4.0 mi SSE 4.6 mph - 0.01 in Snow Light Snow
10:09 PM 32.0 °F 25.6 °F 30.2 °F 93% 30.07 in 5.0 mi SE 6.9 mph - 0.00 in Snow Light Snow
10:30 PM 32.0 °F 26.4 °F 30.2 °F 93% 30.08 in 6.0 mi SSE 5.8 mph - 0.00 in Snow Light Snow
10:42 PM 32.0 °F 26.4 °F 30.2 °F 93% 30.07 in 4.0 mi SSE 5.8 mph - 0.00 in Snow Light Snow
10:51 PM 32.0 °F 27.5 °F 30.9 °F 96% 30.17 in 3.0 mi SSE 4.6 mph - 0.00 in Snow Light Snow
11:01 PM 32.0 °F 27.5 °F 30.2 °F 93% 30.08 in 2.5 mi SSE 4.6 mph - 0.00 in Snow Light Snow
11:05 PM 32.0 °F 27.5 °F 30.2 °F 93% 30.08 in 3.0 mi SSE 4.6 mph - 0.00 in Snow Light Snow
11:15 PM 32.0 °F 27.5 °F 30.2 °F 93% 30.08 in 4.0 mi SSE 4.6 mph - 0.00 in Snow Light Snow
11:51 PM 32.0 °F 27.5 °F 30.9 °F 96% 30.17 in 3.0 mi SSE 4.6 mph - 0.01 in Snow Light Snow
11:58 PM 32.0 °F 28.7 °F 30.2 °F 93% 30.09 in 2.5 mi SSE 3.5 mph - 0.00 in Snow Light Snow